Coolidge Muni, Coolidge, AZ

4:53 PM MST on December 15, 2019 (GMT -0700)
Coolidge Muni, Coolidge

Weather History for KP08 - September, 2019

Change the Weather History Date:

Thursday, September 12, 2019

  Actual Average (KCGZ) Record (KCGZ)
Temperature  
Mean Temperature 89 °F -  
Max Temperature 98 °F 96 °F 105 °F (2001)
Min Temperature 80 °F 70 °F 60 °F (2005)
Cooling Degree Days 24    
Growing Degree Days 39 (Base 50)    
Moisture  
Dew Point 45 °F    
Average Humidity 21    
Maximum Humidity 45    
Minimum Humidity 10    
Precipitation  
Precipitation 0.00 in - - ()
Sea Level Pressure  
Sea Level Pressure 29.95 in    
Wind  
Wind Speed 4 mph ()    
Max Wind Speed 10 mph    
Max Gust Speed 17 mph    
Visibility 9.9 miles    
Events      
Averages and records for this station are not official NWS values.
T = Trace of Precipitation, MM = Missing Value Source: Averaged Metar Reports

Daily Weather History Graph

Daily Weather History Graph

Search for Another Location

Airport or City:

Astronomy

Sep. 12, 2019 Rise Set
Actual Time 6:07 AM MST 6:36 PM MST
Civil Twilight 5:42 AM MST 7:00 PM MST
Nautical Twilight 5:13 AM MST 7:30 PM MST
Astronomical Twilight 4:43 AM MST 7:59 PM MST
Moon 6:15 PM MST (9/12) 4:39 AM MST (9/12)
Length of Visible Light 13h 18m
Length of Day
12h 28m
Waxing Gibbous, 98% of the Moon is Illuminated
Sep 12
Waxing Gibbous
Sep 13
Full
Sep 21
Last Quarter
Sep 28
New
Oct 5
First Quarter

Hourly Weather History & Observations

Time (MST) Temp. Heat Index Dew Point Humidity Pressure Visibility Wind Dir Wind Speed Gust Speed Precip Events Conditions
7:55 AM 80.6 °F 80.8 °F 57.2 °F 45% 30.02 in 10.0 mi Calm Calm - N/A   Clear
8:15 AM 82.4 °F 82.0 °F 57.2 °F 42% 30.02 in 10.0 mi Variable 3.5 mph - N/A   Clear
8:35 AM 84.2 °F 83.5 °F 57.2 °F 40% 30.02 in 10.0 mi SSW 5.8 mph - N/A   Clear
8:55 AM 84.2 °F 83.0 °F 55.4 °F 37% 30.02 in 10.0 mi Calm Calm - N/A   Clear
9:15 AM 86.0 °F 84.5 °F 55.4 °F 35% 30.02 in 10.0 mi Calm Calm - N/A   Clear
9:35 AM 87.8 °F 86.1 °F 55.4 °F 33% 30.02 in 7.0 mi Calm Calm - N/A   Clear
9:55 AM 89.6 °F 87.7 °F 55.4 °F 31% 30.02 in 10.0 mi Variable 4.6 mph - N/A   Clear
10:15 AM 89.6 °F 87.7 °F 55.4 °F 31% 30.02 in 10.0 mi Calm Calm - N/A   Clear
10:35 AM 89.6 °F 87.3 °F 53.6 °F 29% 30.02 in 10.0 mi Calm Calm - N/A   Clear
10:55 AM 91.4 °F 89.1 °F 53.6 °F 28% 30.01 in 10.0 mi Calm Calm - N/A   Clear
11:15 AM 91.4 °F 89.1 °F 53.6 °F 28% 30.01 in 10.0 mi Variable 5.8 mph - N/A   Clear
11:35 AM 93.2 °F - 51.8 °F 24% 30.00 in 10.0 mi Variable 4.6 mph 11.5 mph N/A   Clear
11:55 AM 95.0 °F - 48.2 °F 20% 30.00 in 10.0 mi NNW 6.9 mph - N/A   Clear
12:15 PM 93.2 °F - 50.0 °F 23% 29.99 in 10.0 mi Variable 6.9 mph 13.8 mph N/A   Clear
12:35 PM 95.0 °F - 48.2 °F 20% 29.98 in 10.0 mi WNW 9.2 mph - N/A   Clear
12:55 PM 96.8 °F - 46.4 °F 18% 29.97 in 10.0 mi NNW 9.2 mph - N/A   Clear
1:15 PM 96.8 °F - 39.2 °F 14% 29.96 in 10.0 mi North 9.2 mph - N/A   Clear
1:35 PM 96.8 °F - 41.0 °F 15% 29.95 in 10.0 mi WNW 8.1 mph 17.3 mph N/A   Clear
1:55 PM 98.6 °F - 33.8 °F 10% 29.94 in 10.0 mi NW 10.4 mph - N/A   Clear
2:15 PM 98.6 °F - 35.6 °F 11% 29.94 in 10.0 mi Variable 6.9 mph 13.8 mph N/A   Clear
2:35 PM 98.6 °F - 35.6 °F 11% 29.93 in 10.0 mi North 5.8 mph 12.7 mph N/A   Clear
2:55 PM 98.6 °F - 33.8 °F 10% 29.92 in 10.0 mi NNW 6.9 mph 12.7 mph N/A   Clear
3:15 PM 98.6 °F - 33.8 °F 10% 29.92 in 10.0 mi Variable 4.6 mph 12.7 mph N/A   Clear
3:35 PM 98.6 °F - 33.8 °F 10% 29.91 in 10.0 mi West 5.8 mph - N/A   Clear
3:55 PM 98.6 °F - 33.8 °F 10% 29.91 in 10.0 mi West 8.1 mph 15.0 mph N/A   Clear
4:15 PM 98.6 °F - 35.6 °F 11% 29.90 in 10.0 mi WNW 6.9 mph - N/A   Clear
4:35 PM 98.6 °F - 35.6 °F 11% 29.89 in 10.0 mi WNW 5.8 mph - N/A   Clear
4:55 PM 98.6 °F - 33.8 °F 10% 29.89 in 10.0 mi WNW 9.2 mph - N/A   Clear
5:15 PM 98.6 °F - 39.2 °F 13% 29.89 in 10.0 mi WNW 5.8 mph 12.7 mph N/A   Clear
5:35 PM 96.8 °F - 39.2 °F 14% 29.88 in 10.0 mi West 10.4 mph - N/A   Clear
6:15 PM 95.0 °F - 41.0 °F 15% 29.89 in 10.0 mi West 6.9 mph - N/A   Clear
6:35 PM 93.2 °F - 42.8 °F 17% 29.89 in 10.0 mi West 4.6 mph - N/A   Clear
6:55 PM 89.6 °F - 42.8 °F 20% 29.89 in 10.0 mi West 5.8 mph - N/A   Clear
7:15 PM 89.6 °F - 42.8 °F 20% 29.90 in 10.0 mi West 6.9 mph - N/A   Clear
7:35 PM 87.8 °F - 42.8 °F 21% 29.91 in 10.0 mi West 5.8 mph - N/A   Clear
7:55 PM 86.0 °F - 42.8 °F 22% 29.91 in 10.0 mi SW 4.6 mph - N/A   Clear
8:15 PM 86.0 °F - 42.8 °F 22% 29.92 in 10.0 mi SSW 4.6 mph - N/A   Clear
8:20 PM 86.0 °F - 42.8 °F 22% 29.92 in 10.0 mi South 4.6 mph - N/A   Clear